Home   Weather   Ashkelon   Past weeks

Flag for Israel Past Weather in Ashkelon, Israel — Yesterday and Last 2 Weeks

Now
91 °F

Passing clouds.


Feels Like: 99 °F
Forecast: 79 / 86 °F
Wind: 9 mph from West

Location: Ben Gurion International Airport

Current Time: Jul 28, 2017 at 12:08:35 pm

Latest Report: Jul 28, 2017 at 11:50 am


Visibility: N/A

Pressure: 29.83 "Hg

Humidity: 52%

Dew Point: 72 °F

Location of AshkelonLocation

Past Weather in Ashkelon — Graph

°F

Ashkelon Temperature Yesterday

Maximum temperature yesterday: 93 °F (at 3:50 pm)
Minimum temperature yesterday: 77 °F (at 4:50 am)
Average temperature yesterday: 85 °F

High & Low Weather Summary for the Past Weeks

 TemperatureHumidityPressure
High99 °F (Jul 16, 12:50 pm)89% (Jul 28, 6:20 am)29.83 "Hg (Jul 28, 6:20 am)
Low72 °F (Jul 16, 5:20 am)24% (Jul 16, 1:20 pm)29.59 "Hg (Jul 13, 5:20 pm)
Average84 °F64%29.72 "Hg
* Reported Jul 13 10:20 am — Jul 28 10:50 am, Ashkelon. Weather by CustomWeather, © 2017

Note: Actual official high and low records may vary slightly from our data, if they occured in-between our weather recording intervals... More about our weather records

Advertising

Ashkelon Weather History for the Previous 24 Hours

Scroll right to see more
 ConditionsComfort  
Time TempWeatherWind HumidityBarometerVisibility
10:50 am
Fri, Jul 28
91 °FSunny.3 mph52%29.83 "Hg10 mi
10:20 am90 °FPassing clouds.3 mph52%29.83 "HgN/A
9:50 am88 °FPassing clouds.7 mph59%29.83 "HgN/A
9:20 am88 °FScattered clouds.5 mph59%29.83 "HgN/A
8:50 am86 °FPassing clouds.3 mph66%29.83 "HgN/A
8:20 am84 °FScattered clouds.3 mph70%29.83 "HgN/A
7:50 am82 °FScattered clouds.5 mph79%29.83 "Hg6 mi
7:20 am82 °FScattered clouds.6 mph79%29.83 "Hg6 mi
6:50 am81 °FPartly sunny.5 mph84%29.83 "HgN/A
6:20 am79 °FScattered clouds.5 mph89%29.80 "HgN/A
5:50 am81 °FPassing clouds.3 mph79%29.80 "HgN/A
5:20 am81 °FPassing clouds.3 mph79%29.80 "HgN/A
4:50 am81 °FPassing clouds.2 mph79%29.80 "HgN/A
4:20 am81 °FPassing clouds.2 mph79%29.80 "HgN/A
3:50 am81 °FPassing clouds.2 mph84%29.77 "HgN/A
3:20 am81 °FPassing clouds.2 mph84%29.77 "HgN/A
2:50 am81 °FPassing clouds.2 mph84%29.77 "HgN/A
2:20 am81 °FPassing clouds.2 mph84%29.77 "HgN/A
1:50 am82 °FPassing clouds.2 mph79%29.77 "HgN/A
1:20 am82 °FPassing clouds.7 mph79%29.77 "HgN/A
12:50 am82 °FPassing clouds.7 mph79%29.77 "HgN/A
12:20 am82 °FPassing clouds.5 mph79%29.77 "HgN/A
11:50 pm
Thu, Jul 27
82 °FPassing clouds.3 mph79%29.77 "HgN/A
11:20 pm84 °FPassing clouds.3 mph74%29.77 "HgN/A
10:50 pm84 °FPassing clouds.3 mph74%29.77 "HgN/A
10:20 pm84 °FClear.2 mph74%29.77 "Hg10 mi
9:50 pm84 °FPassing clouds.3 mph74%29.77 "HgN/A
9:20 pm86 °FClear.6 mph70%29.77 "Hg10 mi
8:50 pm86 °FPassing clouds.9 mph70%29.77 "HgN/A
8:20 pm86 °FPassing clouds.8 mph70%29.74 "HgN/A
7:50 pm86 °FPassing clouds.9 mph70%29.74 "HgN/A
7:20 pm88 °FPassing clouds.10 mph66%29.74 "HgN/A
6:50 pm88 °FPassing clouds.8 mph66%29.71 "HgN/A
6:20 pm88 °FPassing clouds.9 mph66%29.71 "HgN/A
5:50 pm90 °FPassing clouds.10 mph67%29.71 "HgN/A
5:20 pm90 °FPassing clouds.12 mph63%29.71 "HgN/A
4:50 pm90 °FSunny.12 mph63%29.71 "Hg10 mi
4:20 pm91 °FSunny.12 mph49%29.71 "Hg10 mi
3:50 pm93 °FSunny.10 mph44%29.71 "Hg10 mi
3:20 pm91 °FSunny.12 mph49%29.71 "Hg10 mi
2:50 pm91 °FSunny.10 mph49%29.71 "Hg10 mi
2:20 pm91 °FPassing clouds.14 mph49%29.71 "HgN/A
1:50 pm91 °FPassing clouds.12 mph49%29.71 "HgN/A
1:20 pm91 °FSunny.12 mph49%29.71 "Hg10 mi
12:50 pm91 °FSunny.9 mph52%29.71 "Hg10 mi
12:20 pm91 °FSunny.9 mph52%29.71 "Hg10 mi
Weather by CustomWeather, © 2017

See weather overviewHow to use our weather pages